Flag for Belgium Weather past 2 weeks in Brussels, Belgium

Now
45 °F

Quite cool.


Feels Like: 40 °F
Forecast: 36 / 46 °F
Wind: 8 mph from Southwest

Location: Uccle

Current Time: Mar 2, 2015 at 5:07:40 PM

Latest Report: Mar 2, 2015 at 1:00 PM


Visibility: N/A

Pressure: 29.73 "Hg

Humidity: 68%

Dew point: 35 °F

Location of BrusselsLocation

Historic Weather in Brussels — Graph

°F

Brussels temperature yesterday

Maximum temperature yesterday: 51 °F (at 3:00 PM)
Minimum temperature yesterday: 42 °F (at 2:00 AM)
Average temperature yesterday: 47 °F

Past Weeks' High & Low Weather Summary

 TemperatureHumidityPressure
High51 °F (Mar 1, 3:00 PM)97% (Feb 18, 11:00 AM)30.78 "Hg (Feb 18, 11:00 AM)
Low29 °F (Feb 18, 7:00 AM)51% (Feb 28, 2:00 PM)29.35 "Hg (Feb 23, 6:00 AM)
Average40 °F84%29.95 "Hg
* Reported Feb 15 1:00 PM — Mar 2 1:00 PM, Brussels, Weather by CustomWeather, © 2015

Note: Actual official high and low records may vary slightly from our data, if they occured in-between our weather recording intervals... More about our weather records

Advertising

Brussels weather history for previous 24 hours

 ConditionsComfort  
Time TempWeatherWind HumidityBarometerVisibility
1:00 PM
Mon, Mar 2
45 °FQuite cool.8 mph68%29.73 "HgN/A
12:00 PM46 °FCool.8 mph62%29.75 "HgN/A
11:00 AM45 °FQuite cool.6 mph70%29.74 "HgN/A
10:00 AM42 °FQuite cool.3 mph81%29.73 "HgN/A
9:00 AM39 °FChilly.5 mph89%29.71 "HgN/A
8:00 AM37 °FChilly.3 mph90%29.70 "HgN/A
7:00 AM38 °FChilly.5 mph90%29.67 "HgN/A
6:00 AM38 °FChilly.3 mph88%29.64 "HgN/A
5:00 AM42 °FQuite cool.3 mph81%29.61 "HgN/A
4:00 AM43 °FQuite cool.3 mph77%29.61 "HgN/A
3:00 AM44 °FQuite cool.6 mph75%29.60 "HgN/A
2:00 AM44 °FQuite cool.6 mph75%29.57 "HgN/A
1:00 AM44 °FQuite cool.7 mph78%29.55 "HgN/A
12:00 AM47 °FCool.7 mph80%29.50 "HgN/A
11:00 PM
Sun, Mar 1
49 °FCool.10 mph71%29.50 "HgN/A
9:00 PM48 °FCool.6 mph72%29.58 "HgN/A
8:00 PM47 °FCool.3 mph71%29.61 "HgN/A
7:00 PM47 °FCool.3 mph66%29.62 "HgN/A
6:00 PM48 °FCool.6 mph66%29.65 "HgN/A
5:00 PM48 °FCool.8 mph73%29.65 "HgN/A
Weather by CustomWeather, © 2015

See weather overviewHow to use our weather pages